Regional Weather Roundup
Issued by NWS

Home | Current Version | Previous Version | Graphics & Text | Print | Product List | Glossary On
Versions: 1 2 3 4 5 6 7 8 9 10 11 12 13 14 15 16 17 18 19 20 21 22 23 24 25 26 27 28 29 30 31 32 33 34 35 36 37 38 39 40 41 42 43 44 45 46 47 48 49 50
852
ASUS43 KDTX 192201
RWRMI
MICHIGAN HOURLY REGIONAL WEATHER ROUNDUP
NATIONAL WEATHER SERVICE DETROIT/PONTIAC MI
500 PM EST THU JAN 19 2017

NOTE: "FAIR" INDICATES FEW OR NO CLOUDS BELOW 12,000 FEET WITH NO
SIGNIFICANT WEATHER AND/OR OBSTRUCTION TO VISIBILITY.

MIZ047>049-052>055-059>063-066>070-074>076-081>083-192300-
SOUTHEAST LOWER MICHIGAN

CITY           SKY/WX    TMP DP  RH WIND       PRES   REMARKS
ADRIAN         CLOUDY    36  34  92 S3        29.96F
ALMA           CLOUDY    36  33  90 SW3       29.96R FOG
ANN ARBOR      CLOUDY    35  33  92 S6        29.97S WCI  30
BAD AXE        CLOUDY    33  32  98 S8        29.97S FOG     WCI  25
CARO           PTCLDY    35  32  90 SE3       29.96R
DETROIT CITY   CLOUDY    34  32  93 S8        29.99S FOG     WCI  27
DETROIT        CLOUDY    37  32  82 S9        29.99R HAZE    WCI  30
FLINT          CLOUDY    40  33  76 CALM      29.96S
GROSSE ILE     CLOUDY    35  33  92 S3        29.98R FOG
HILLSDALE      CLOUDY    34  32  93 SE5       29.92F FOG     WCI  30
HOWELL         CLOUDY    39  32  78 S6        29.95R WCI  34

CITY           SKY/WX    TMP DP  RH WIND       PRES   REMARKS
JACKSON        CLOUDY    38  32  79 S7        29.94S WCI  33
LAMBERTVILLE   MOCLDY    39  34  82 CALM      29.97F
LANSING        CLOUDY    40  32  73 S5        29.95R
LAPEER         FAIR      39  32  78 CALM      29.96R
MASON          CLOUDY    39  35  84 S3        29.94F
MONROE         CLOUDY    38  35  90 CALM      29.97S FOG
MT. CLEMENS    CLOUDY    33  32  96 S8        29.97S FOG     WCI  26
PONTIAC        CLOUDY    39  31  72 S3        29.94F
PORT HOPE        N/A     34  32  92 S5        29.96R WCI  30
PORT HURON     CLOUDY    32  32 100 S3        29.99S FOG
TRI CITIES     PTCLDY    36  34  92 W5        29.97R FOG     WCI  32
MIDLAND        FAIR      37  32  84 S6        29.96R FOG     WCI  32
TROY           CLOUDY    39  32  76 S3        29.99S
SAGINAW HB     CLOUDY    36  32  87 CALM      29.97R
$$
MIZ043>046-050>051-056>058-064>065-071>073-077>080-192300-
SOUTHWEST LOWER MICHIGAN

CITY           SKY/WX    TMP DP  RH WIND       PRES   REMARKS
BATTLE CREEK   CLOUDY    41  35  79 E3        29.91F
BENTON HARBOR  CLOUDY    41  35  79 E7        29.89F HAZE
BIG RAPIDS     CLOUDY    40  33  74 CALM      29.92R
COLDWATER      CLOUDY    37  35  92 E6        29.91F FOG     WCI  33
FREMONT        FAIR      36  34  91 CALM      29.93R FOG
HOLLAND          N/A     39  35  86 E3        29.92F
GRAND RAPIDS   CLOUDY    39  34  82 CALM      29.92F HAZE
IONIA          FAIR      37  33  86 CALM      29.92F
KALAMAZOO      CLOUDY    40  34  79 SE5       29.91F HAZE
LUDINGTON      CLOUDY    36  35  94 S6        29.92S FOG     WCI  31
MARSHALL       CLOUDY    40  36  83 SE3       29.92F
MOUNT PLEASANT CLOUDY    38  34  85 S5        29.94R FOG     WCI  34
MUSKEGON       CLOUDY    39  34  82 SE5       29.93S
SOUTH HAVEN    CLOUDY    40  37  88 E6        29.89F FOG
$$
MIZ016>042-192300-
NORTHERN LOWER MICHIGAN

CITY           SKY/WX    TMP DP  RH WIND       PRES   REMARKS
ALPENA         CLOUDY    37  32  82 CALM      29.95R
BEAVER ISLAND  CLOUDY    36  36 100 SW8       29.92R FOG     WCI  29
BELLAIRE       CLOUDY    37  33  85 CALM      29.93R
CADILLAC       CLOUDY    35  33  92 S3        29.91R FOG
CHARLEVOIX     CLOUDY    35  35  98 S3        29.96R FOG
FRANKFORT      CLOUDY    37  35  92 S7        29.93R FOG     WCI  31
GAYLORD        CLOUDY    36  31  82 S6        29.90R HAZE    WCI  31
GRAYLING       CLOUDY    35  33  92 CALM      29.93R FOG
HARBOR SPRINGS CLOUDY    36  33  91 CALM      29.94R FOG
HOUGHTON LAKE  CLOUDY    35  33  92 S3        29.93R FOG
MANISTEE       CLOUDY    38  34  85 SE3       29.91F
OSCODA         CLOUDY    36  34  92 SW5       29.95R FOG     WCI  32
PELLSTON       CLOUDY    35  32  88 W3        29.94R FOG
ROGERS CITY    CLOUDY    35  32  87 CALM      29.96R FOG
TRAVERSE CITY  CLOUDY    37  33  85 SW5       29.92R WCI  33
$$
MIZ007>008-015-192300-
EASTERN UPPER MICHIGAN

CITY           SKY/WX    TMP DP  RH WIND       PRES   REMARKS
KINROSS        CLOUDY    34  33  96 S8        29.91R FOG     WCI  27
MACKINAC ISLAN CLOUDY    34  34 100 CALM      29.92R FOG
NEWBERRY       FOG       33  32  96 S9G18     29.86S VSB<1/4 WCI  25
S. S. MARIE    CLOUDY    36  32  85 SE7       29.91R FOG     WCI  30
MUNISING         N/A     33  32  96 S6        29.84R WCI  28
$$
MIZ004>006-011>014-085-192300-
CENTRAL UPPER MICHIGAN

CITY           SKY/WX    TMP DP  RH WIND       PRES   REMARKS
MANISTIQUE     FOG       32  32  99 SW12G17   29.88S VSB 1/4 WCI  23
ESCANABA       FOG       33  32  96 S8        29.89R VSB 3/4 WCI  26
SAWYER-GWINN   FOG       32  32 100 S10       29.82R VSB 1/2 WCI  24
$$
MIZ001>003-009>011-084-192300-
WESTERN UPPER MICHIGAN

CITY           SKY/WX    TMP DP  RH WIND       PRES   REMARKS
IRON MOUNTAIN  CLEAR     37  30  75 SE8       29.82R WCI  31
HOUGHTON       CLEAR     38  32  79 E3        29.76R
COPPER HARBOR    N/A     35  33  92 CALM      29.80R
IRONWOOD       CLEAR     50  37  61 SW9       29.76R
$$

ABBREVIATIONS USED IN REMARKS
   TC - TEMPERATURE IN CELSIUS
  WCI - WIND CHILL INDEX
   HX - HEAT INDEX
  VSB - VISIBILITY





USA.gov is the U.S. government's official web portal to all federal, state and local government web resources and services.